Aeroporto :
LOGIN :

Iscrizione | Disclaimer

   EN    FR    IT 

 










Sommario :    VFR   VFR Marginale   IFR   IFR Intensivo   IFR Molto Intensivo
Visibilità : 
Base nubi : 
>= 8 km
>= 3000ft
5 / 8 km
1000 / 3000 ft
1500m / 5 km
500 / 1000 ft
800 / 1500m
200 / 500 ft
< 800m
< 200 ft
Simboli :   Temporali  Nebbia  Neve Forte  Precipitazioni Forti  Vento > 20 kt
SIGMETs :   Varie  Temporali  Ghiacco  Turbolenza  Onda orograficha  Ceneri Vulcaniche






- Altitudine del aeroporto : 157 ft
- Codice IATA : LIL


LFQQ - Lille Lesquin

ULTIMO METAR :
  • 282200Z AUTO 02009KT CAVOK 16/08 Q1029 NOSIG

METARs OBSOLETI :
  • 282130Z AUTO 02009KT CAVOK 16/08 Q1029 NOSIG
  • 282100Z AUTO 02010KT CAVOK 17/07 Q1029 NOSIG
  • 282030Z AUTO 02010KT CAVOK 17/07 Q1029 NOSIG
  • 282000Z AUTO 02008KT CAVOK 18/06 Q1029 NOSIG
  • 281930Z AUTO 04006KT CAVOK 19/03 Q1029 NOSIG

TAF TAF LFQQ
Valido dal 28 a 18 ore il 30 a 00 ore UTC


281700Z 2818/2924 05012KT CAVOK
ATIS : +33 3 20 16 19 54



MetMap, La meteo Aeronautica in un colpo d'occhio ! - Copyright ORBIFLY Dicembre 2007 - Disclaimer

ORBIFLY MET'MAP TEAM :

Programmazione e sviluppo : Alexandra Zaïnal
Concezione : Baudouin d'Aumeries
Aiuto per la programmazione : Marc-Olivier Méhu
Supporto tecnico e logistico : Manuel Goepfert
Aiuto per la traduzione : Arnaldo La Scala

Contatto : metmap@orbifly.com




FONTI E CREDITI :

   NOAA